McComb, MS

6:46 PM CDT on March 25, 2017 (GMT -0500)
McComb-Pike County-Lewis

Weather History for KMCB - April, 2013

Change the Weather History Date:

Tuesday, April 30, 2013

  Actual Average Record
Temperature  
Mean Temperature 68 °F -  
Max Temperature 75 °F 79 °F 91 °F (1987)
Min Temperature 60 °F 57 °F 43 °F (1965)
Cooling Degree Days 2    
Growing Degree Days 18 (Base 50)    
Moisture  
Dew Point 64 °F    
Average Humidity 92    
Maximum Humidity 100    
Minimum Humidity 71    
Precipitation  
Precipitation 1.00 in - - ()
Sea Level Pressure  
Sea Level Pressure 29.90 in    
Wind  
Wind Speed 2 mph (ESE)    
Max Wind Speed 10 mph    
Max Gust Speed 25 mph    
Visibility 5 miles    
Events Fog , Rain , Thunderstorm    
Averages and records for this station are not official NWS values.
T = Trace of Precipitation, MM = Missing Value Source: NWS Daily Summary

Daily Weather History Graph

Daily Weather History Graph

Search for Another Location

Airport or City:

Trip Planner

Search our weather history database for the weather conditions in past years. The results will help you decide how hot, cold, wet, or windy it might be!

Date:

Astronomy

Apr. 30, 2013 Rise Set
Actual Time 6:17 AM CDT 7:40 PM CDT
Civil Twilight 5:52 AM CDT 8:06 PM CDT
Nautical Twilight 5:21 AM CDT 8:37 PM CDT
Astronomical Twilight 4:49 AM CDT 9:08 PM CDT
Moon No Moon Rise 10:50 AM CDT (4/30)
Length of Visible Light 14h 14m
Length of Day
13h 22m
Waning Gibbous, 70% of the Moon is Illuminated
Apr 30
Waning Gibbous
May 2
Last Quarter
May 9
New
May 17
First Quarter
May 24
Full

Hourly Weather History & Observations

Time (CDT) Temp. Dew Point Humidity Pressure Visibility Wind Dir Wind Speed Gust Speed Precip Events Conditions
12:53 AM 62.1 °F 60.1 °F 93% 29.91 in 8.0 mi Calm Calm - N/A   Clear
1:50 AM 62.6 °F 60.8 °F 94% 29.91 in 3.0 mi Calm Calm - N/A   Scattered Clouds
1:53 AM 62.1 °F 60.1 °F 93% 29.90 in 3.0 mi Calm Calm - N/A   Mostly Cloudy
2:24 AM 60.8 °F 59.0 °F 94% 29.91 in 7.0 mi Calm Calm - N/A   Scattered Clouds
2:53 AM 61.0 °F 59.0 °F 93% 29.89 in 6.0 mi Calm Calm - N/A   Mostly Cloudy
3:37 AM 62.6 °F 62.6 °F 100% 29.90 in 1.2 mi Calm Calm - N/A   Overcast
3:44 AM 62.6 °F 62.6 °F 100% 29.90 in 0.2 mi Calm Calm - N/A Fog Fog
3:53 AM 63.0 °F 63.0 °F 100% 29.89 in 0.2 mi Calm Calm - N/A Fog Fog
4:53 AM 63.0 °F 63.0 °F 100% 29.89 in 0.2 mi Calm Calm - N/A Fog Fog
5:53 AM 64.0 °F 64.0 °F 100% 29.89 in 0.2 mi Calm Calm - 0.01 in Fog Fog
6:18 AM 64.4 °F 64.4 °F 100% 29.91 in 0.5 mi Calm Calm - N/A Fog Fog
6:30 AM 64.4 °F 64.4 °F 100% 29.91 in 0.2 mi NE 3.5 mph - N/A Fog Fog
6:38 AM 64.4 °F 64.4 °F 100% 29.92 in 0.5 mi Calm Calm - N/A Fog Fog
6:53 AM 64.0 °F 64.0 °F 100% 29.91 in 0.2 mi Calm Calm - N/A Fog Fog
7:53 AM 64.9 °F 64.0 °F 97% 29.92 in 0.2 mi East 4.6 mph - N/A Fog Fog
8:50 AM 66.2 °F 64.4 °F 94% 29.93 in 0.8 mi East 3.5 mph - N/A   Overcast
8:53 AM 66.0 °F 64.9 °F 96% 29.92 in 1.2 mi Variable 4.6 mph - N/A   Overcast
9:02 AM 66.2 °F 64.4 °F 94% 29.93 in 3.0 mi SE 4.6 mph - N/A   Overcast
9:50 AM 68.0 °F 66.2 °F 94% 29.94 in 6.0 mi East 5.8 mph - N/A   Overcast
9:53 AM 68.0 °F 66.0 °F 93% 29.93 in 7.0 mi ESE 4.6 mph - N/A   Overcast
10:24 AM 71.6 °F 66.2 °F 83% 29.93 in 7.0 mi Variable 3.5 mph - N/A   Overcast
10:53 AM 72.0 °F 66.0 °F 81% 29.92 in 8.0 mi Variable 4.6 mph - N/A   Overcast
11:05 AM 73.4 °F 66.2 °F 78% 29.93 in 9.0 mi Variable 5.8 mph - N/A   Mostly Cloudy
11:53 AM 73.9 °F 66.0 °F 76% 29.93 in 10.0 mi SSE 6.9 mph - N/A   Mostly Cloudy
12:51 PM 73.4 °F 64.4 °F 73% 29.92 in 8.0 mi ESE 5.8 mph - N/A   Scattered Clouds
12:53 PM 73.9 °F 64.9 °F 73% 29.91 in 8.0 mi Variable 3.5 mph - N/A   Scattered Clouds
1:53 PM 75.0 °F 64.9 °F 71% 29.88 in 10.0 mi East 5.8 mph - N/A   Partly Cloudy
2:53 PM 75.0 °F 66.0 °F 73% 29.88 in 10.0 mi Calm Calm - N/A   Scattered Clouds
3:20 PM 75.2 °F 66.2 °F 73% 29.88 in 10.0 mi NE 3.5 mph - N/A Thunderstorm Mostly Cloudy
3:38 PM 69.8 °F 66.2 °F 88% 29.89 in 1.5 mi SSE 10.4 mph 25.3 mph 0.12 in Rain , Thunderstorm Heavy Thunderstorms and Rain
3:53 PM 64.9 °F 63.0 °F 93% 29.88 in 0.8 mi NNE 6.9 mph - 0.41 in Rain , Thunderstorm Heavy Thunderstorms and Rain
4:01 PM 64.4 °F 62.6 °F 94% 29.89 in 1.0 mi ENE 8.1 mph - 0.11 in Rain , Thunderstorm Heavy Thunderstorms and Rain
4:15 PM 66.2 °F 64.4 °F 94% 29.88 in 3.0 mi East 4.6 mph - 0.18 in Rain , Thunderstorm Light Thunderstorms and Rain
4:36 PM 66.2 °F 64.4 °F 94% 29.90 in 1.5 mi SE 6.9 mph - 0.32 in Rain , Thunderstorm Rain
4:38 PM 66.2 °F 64.4 °F 94% 29.90 in 0.8 mi South 6.9 mph - 0.42 in Rain , Thunderstorm Heavy Rain
4:53 PM 66.9 °F 66.0 °F 97% 29.89 in 2.0 mi SSW 6.9 mph - 0.55 in Rain , Thunderstorm Light Thunderstorms and Rain
5:01 PM 66.2 °F 66.2 °F 100% 29.90 in 5.0 mi SSW 5.8 mph - 0.00 in Rain , Thunderstorm Light Rain
5:37 PM 66.2 °F 64.4 °F 94% 29.90 in 10.0 mi Calm Calm - 0.00 in   Mostly Cloudy
5:53 PM 66.9 °F 64.9 °F 93% 29.88 in 9.0 mi Calm Calm - 0.01 in Rain Light Rain
7:03 PM 66.2 °F 66.2 °F 100% 29.88 in 10.0 mi Calm Calm - N/A   Overcast
7:53 PM 66.0 °F 64.9 °F 96% 29.88 in 10.0 mi East 3.5 mph - N/A   Overcast
8:53 PM 64.9 °F 64.0 °F 97% 29.89 in 10.0 mi Calm Calm - N/A   Overcast
10:12 PM 66.2 °F 64.4 °F 94% 29.92 in 10.0 mi East 9.2 mph - 0.00 in   Overcast
10:53 PM 64.9 °F 64.0 °F 97% 29.90 in 10.0 mi Calm Calm - 0.02 in   Overcast